Regional Weather Roundup
Issued by NWS

Home | Current Version | Previous Version | Text Only | Print | Product List | Glossary Off
Versions: 1 2 3 4 5 6 7 8 9 10 11 12 13 14 15 16 17 18 19 20 21 22 23 24 25 26 27

000
ASUS45 KBOI 051910
RWRID

IDAHO REGIONAL WEATHER ROUNDUP
NATIONAL WEATHER SERVICE BOISE ID
1200 PM MST MON DEC 05 2016

NOTE: "FAIR" INDICATES FEW OR NO CLOUDS BELOW 12000 FEET
WITH NO SIGNIFICANT WEATHER AND/OR OBSTRUCTIONS TO VISIBILITY

IDZ012-014-052000-
SOUTHWEST IDAHO


CITY           SKY/WX    TMP DP  RH WIND       PRES   REMARKS
BOISE          SUNNY     31  16  54 CALM      30.15F
CALDWELL       SUNNY     33  17  51 VRB3      30.17F
MOUNTAIN HOME  SUNNY     32  18  57 CALM      30.14F
$$

IDZ016-017-052000-
SOUTHCENTRAL IDAHO


CITY           SKY/WX    TMP DP  RH WIND       PRES   REMARKS
BURLEY         SUNNY     25  15  66 SW17      30.08F WCI  12
JEROME         SUNNY     25  17  72 SW13      30.10F WCI  14
TWIN FALLS     SUNNY     25  15  66 SW12      30.10F WCI  14
$$

IDZ019>023-052000-
SOUTHEAST IDAHO


CITY           SKY/WX    TMP DP  RH WIND       PRES   REMARKS
IDAHO FALLS    MOSUNNY   24  12  60 SW16G25   30.00S WCI  11
POCATELLO      PTSUNNY   23  16  74 SW22      30.06S WCI   8
REXBURG        SUNNY     22   1  40 S3        29.99S
$$

IDZ006-010-011-018-031-032-052000-
CENTRAL IDAHO MOUNTAINS


CITY           SKY/WX    TMP DP  RH WIND       PRES   REMARKS
MCCALL         MOSUNNY   11   8  88 CALM      30.01S
HAILEY         SUNNY     21   7  53 NW6       30.02F WCI  14
STANLEY          N/A      7  -1  70 CALM      29.96F
SALMON         SUNNY     23   3  42 CALM      30.03F
CHALLIS        SUNNY     22   5  48 S12       29.99F WCI  10
$$

IDZ002-004-006-007-026-052000-
NORTHERN IDAHO


CITY           SKY/WX    TMP DP  RH WIND       PRES   REMARKS
LEWISTON       SUNNY     35  22  58 N7        30.11F WCI  29
LOWELL           N/A     32  27  81 CALM      30.17F
COEUR D`ALENE  MOSUNNY   30  23  75 S13       30.07F WCI  20
MULLAN PASS    MOSUNNY   13   9  84 VRB5      29.85S WCI   5
$$




USA.gov is the U.S. government's official web portal to all federal, state and local government web resources and services.